• In Austria
  • List of Countries
  • For 7 days
  • Water Temperature
  • Satellite Maps
  • Weather Map
  • News
  • Weather Widgets
  • user-avatar
    Login

    Hourly Weather San Luis

    Today, 18 September, Tuesday

    Time Temperature Precipitation Wind Pressure Humidity
    00:00 +18°C° 0 mm 9 mps 692 mmHg 46%
    01:00 +18°C° 0 mm 10 mps 692 mmHg 44%
    02:00 +18°C° 0 mm 11 mps 691 mmHg 43%
    03:00 +18°C° 0 mm 12 mps 690 mmHg 45%
    04:00 +18°C° 0 mm 13 mps 690 mmHg 47%
    05:00 +17°C° 0 mm 13 mps 690 mmHg 49%
    06:00 +18°C° 0 mm 13 mps 690 mmHg 48%
    07:00 +18°C° 0 mm 13 mps 690 mmHg 47%
    08:00 +19°C° 0 mm 10 mps 691 mmHg 47%
    09:00 +21°C° 0 mm 8 mps 692 mmHg 42%
    10:00 +22°C° 0 mm 6 mps 692 mmHg 37%
    11:00 +23°C° 0 mm 4 mps 692 mmHg 31%
    12:00 +25°C° 0 mm 5 mps 692 mmHg 29%
    13:00 +25°C° 0 mm 5 mps 692 mmHg 27%
    14:00 +25°C° 0 mm 5 mps 691 mmHg 25%
    15:00 +23°C° 0.4 mm 6 mps 691 mmHg 27%
    16:00 +22°C° 0.4 mm 7 mps 691 mmHg 30%
    17:00 +21°C° 0.4 mm 7 mps 691 mmHg 32%
    18:00 +18°C° 0.2 mm 8 mps 692 mmHg 36%
    19:00 +17°C° 0.2 mm 8 mps 692 mmHg 39%
    20:00 +15°C° 0.2 mm 9 mps 693 mmHg 43%
    21:00 +15°C° 0 mm 8 mps 693 mmHg 44%
    22:00 +13°C° 0 mm 8 mps 694 mmHg 44%
    23:00 +14°C° 0 mm 7 mps 694 mmHg 45%

    Tomorrow, 19 September, Wednesday

    Time Temperature Precipitation Wind Pressure Humidity
    00:00 +14°C° 0 mm 7 mps 695 mmHg 43%
    01:00 +14°C° 0 mm 7 mps 695 mmHg 41%
    02:00 +12°C° 0 mm 7 mps 695 mmHg 39%
    03:00 +13°C° 0 mm 6 mps 695 mmHg 38%
    04:00 +13°C° 0 mm 6 mps 695 mmHg 38%
    05:00 +11°C° 0 mm 6 mps 696 mmHg 37%
    06:00 +13°C° 0 mm 6 mps 696 mmHg 34%
    07:00 +14°C° 0 mm 6 mps 697 mmHg 31%
    08:00 +15°C° 0 mm 6 mps 698 mmHg 28%
    09:00 +16°C° 0 mm 6 mps 698 mmHg 25%
    10:00 +17°C° 0 mm 6 mps 699 mmHg 23%
    11:00 +19°C° 0 mm 6 mps 699 mmHg 20%
    12:00 +20°C° 0 mm 5 mps 699 mmHg 19%
    13:00 +21°C° 0 mm 5 mps 699 mmHg 18%
    14:00 +22°C° 0 mm 4 mps 699 mmHg 17%
    15:00 +22°C° 0 mm 4 mps 698 mmHg 17%
    16:00 +22°C° 0 mm 4 mps 698 mmHg 17%
    17:00 +23°C° 0 mm 4 mps 697 mmHg 17%
    18:00 +21°C° 0 mm 4 mps 697 mmHg 21%
    19:00 +19°C° 0 mm 5 mps 698 mmHg 24%
    20:00 +17°C° 0 mm 5 mps 698 mmHg 28%
    21:00 +16°C° 0 mm 5 mps 698 mmHg 30%
    22:00 +17°C° 0 mm 4 mps 698 mmHg 32%
    23:00 +15°C° 0 mm 4 mps 698 mmHg 34%

    Day after tomorrow, 20 September, Thursday

    Time Temperature Precipitation Wind Pressure Humidity
    00:00 +15°C° 0 mm 5 mps 698 mmHg 36%
    01:00 +15°C° 0 mm 6 mps 698 mmHg 37%
    02:00 +15°C° 0 mm 6 mps 698 mmHg 39%
    03:00 +15°C° 0 mm 7 mps 698 mmHg 40%
    04:00 +15°C° 0 mm 7 mps 697 mmHg 41%
    05:00 +15°C° 0 mm 8 mps 697 mmHg 41%
    06:00 +15°C° 0 mm 8 mps 698 mmHg 40%
    07:00 +16°C° 0 mm 9 mps 698 mmHg 39%
    08:00 +17°C° 0 mm 9 mps 698 mmHg 37%
    09:00 +19°C° 0 mm 9 mps 699 mmHg 34%
    10:00 +21°C° 0 mm 9 mps 699 mmHg 31%
    11:00 +23°C° 0 mm 9 mps 699 mmHg 27%
    12:00 +24°C° 0 mm 8 mps 699 mmHg 26%
    13:00 +26°C° 0 mm 8 mps 698 mmHg 25%
    14:00 +27°C° 0 mm 8 mps 697 mmHg 24%
    15:00 +26°C° 0 mm 7 mps 697 mmHg 24%
    16:00 +26°C° 0 mm 7 mps 696 mmHg 25%
    17:00 +26°C° 0 mm 7 mps 696 mmHg 26%
    18:00 +23°C° 0 mm 6 mps 696 mmHg 30%
    19:00 +22°C° 0 mm 6 mps 696 mmHg 35%
    20:00 +20°C° 0 mm 5 mps 696 mmHg 39%
    21:00 +20°C° 0 mm 6 mps 696 mmHg 41%
    22:00 +18°C° 0 mm 7 mps 697 mmHg 43%
    23:00 +18°C° 0 mm 8 mps 697 mmHg 45%

    21 September, Friday

    Time Temperature Precipitation Wind Pressure Humidity
    00:00 +18°C° 0 mm 8 mps 697 mmHg 47%
    01:00 +18°C° 0 mm 8 mps 696 mmHg 50%
    02:00 +17°C° 0 mm 8 mps 696 mmHg 52%
    03:00 +17°C° 0 mm 8 mps 696 mmHg 54%
    04:00 +17°C° 0 mm 7 mps 696 mmHg 57%
    05:00 +16°C° 0 mm 7 mps 695 mmHg 59%
    06:00 +17°C° 0 mm 7 mps 696 mmHg 56%
    07:00 +18°C° 0 mm 7 mps 696 mmHg 54%
    08:00 +20°C° 0 mm 7 mps 697 mmHg 51%
    09:00 +22°C° 0 mm 7 mps 697 mmHg 44%
    10:00 +24°C° 0 mm 6 mps 697 mmHg 38%
    11:00 +27°C° 0 mm 6 mps 697 mmHg 31%
    12:00 +28°C° 0 mm 7 mps 696 mmHg 29%
    13:00 +30°C° 0 mm 7 mps 695 mmHg 27%
    14:00 +32°C° 0 mm 8 mps 695 mmHg 25%
    15:00 +31°C° 0 mm 8 mps 694 mmHg 27%
    16:00 +31°C° 0 mm 8 mps 693 mmHg 29%
    17:00 +29°C° 0 mm 9 mps 692 mmHg 31%
    18:00 +28°C° 0 mm 9 mps 692 mmHg 36%
    19:00 +26°C° 0 mm 9 mps 692 mmHg 42%
    20:00 +23°C° 0 mm 9 mps 692 mmHg 47%
    21:00 +23°C° 0 mm 10 mps 692 mmHg 49%
    22:00 +23°C° 0 mm 11 mps 692 mmHg 51%
    23:00 +23°C° 0 mm 13 mps 692 mmHg 53%

    22 September, Saturday

    Time Temperature Precipitation Wind Pressure Humidity
    00:00 +23°C° 0 mm 12 mps 691 mmHg 54%
    01:00 +23°C° 0 mm 12 mps 691 mmHg 54%
    02:00 +23°C° 0 mm 12 mps 691 mmHg 55%
    03:00 +22°C° 0 mm 11 mps 691 mmHg 55%
    04:00 +22°C° 0 mm 10 mps 691 mmHg 55%
    05:00 +22°C° 0 mm 9 mps 691 mmHg 55%
    06:00 +22°C° 0 mm 8 mps 691 mmHg 53%
    07:00 +23°C° 0 mm 7 mps 692 mmHg 51%
    08:00 +24°C° 0 mm 6 mps 693 mmHg 50%
    09:00 +26°C° 0 mm 5 mps 693 mmHg 44%
    10:00 +28°C° 0 mm 4 mps 693 mmHg 39%
    11:00 +29°C° 0 mm 3 mps 694 mmHg 34%
    12:00 +30°C° 0 mm 3 mps 693 mmHg 30%
    13:00 +31°C° 0 mm 2 mps 693 mmHg 27%
    14:00 +32°C° 0 mm 2 mps 693 mmHg 24%
    15:00 +32°C° 0 mm 2 mps 693 mmHg 23%
    16:00 +33°C° 0 mm 3 mps 693 mmHg 22%
    17:00 +33°C° 0 mm 3 mps 692 mmHg 22%
    18:00 +30°C° 0 mm 5 mps 693 mmHg 30%
    19:00 +28°C° 0 mm 7 mps 693 mmHg 39%
    20:00 +26°C° 0 mm 9 mps 693 mmHg 48%
    21:00 +24°C° 0 mm 9 mps 694 mmHg 51%
    22:00 +23°C° 0 mm 9 mps 694 mmHg 54%
    23:00 +22°C° 0 mm 8 mps 694 mmHg 57%

    23 September, Sunday

    Time Temperature Precipitation Wind Pressure Humidity
    00:00 +22°C° 0 mm 7 mps 694 mmHg 60%
    01:00 +21°C° 0 mm 7 mps 694 mmHg 63%
    02:00 +21°C° 0 mm 6 mps 694 mmHg 66%
    03:00 +20°C° 0 mm 6 mps 694 mmHg 69%
    04:00 +18°C° 0 mm 7 mps 695 mmHg 72%
    05:00 +18°C° 0 mm 7 mps 695 mmHg 76%
    06:00 +18°C° 0.1 mm 8 mps 696 mmHg 72%
    07:00 +18°C° 0.1 mm 8 mps 697 mmHg 69%
    08:00 +18°C° 0.1 mm 9 mps 698 mmHg 65%
    09:00 +18°C° 0 mm 9 mps 698 mmHg 58%
    10:00 +18°C° 0 mm 10 mps 699 mmHg 50%
    11:00 +18°C° 0 mm 11 mps 699 mmHg 43%
    12:00 +18°C° 0 mm 10 mps 699 mmHg 39%
    13:00 +19°C° 0 mm 10 mps 699 mmHg 36%
    14:00 +19°C° 0 mm 10 mps 699 mmHg 32%
    15:00 +18°C° 0 mm 10 mps 699 mmHg 31%
    16:00 +18°C° 0 mm 10 mps 699 mmHg 31%
    17:00 +17°C° 0 mm 9 mps 699 mmHg 31%
    18:00 +16°C° 0 mm 9 mps 700 mmHg 33%
    19:00 +15°C° 0 mm 9 mps 700 mmHg 34%
    20:00 +13°C° 0 mm 8 mps 701 mmHg 36%
    21:00 +13°C° 0 mm 8 mps 701 mmHg 38%
    22:00 +12°C° 0 mm 7 mps 701 mmHg 39%
    23:00 +12°C° 0 mm 7 mps 701 mmHg 41%
    Show more